owner,sensor,date,latitude,longitude,vertical_datum,mass_concentration_of_oxygen_in_sea_water,qcFlag 
DISL,ioos:station:DISL:BSCA:1,2011-05-01T00:00:00Z,30.3288,-87.8293,1.656,7.66,1111122 
DISL,ioos:station:DISL:BSCA:1,2011-05-01T00:30:00Z,30.3288,-87.8293,1.65,8.17,1111122 
DISL,ioos:station:DISL:BSCA:1,2011-05-01T01:00:00Z,30.3288,-87.8293,1.652,8.1,1111122 
DISL,ioos:station:DISL:BSCA:1,2011-05-01T01:30:00Z,30.3288,-87.8293,1.634,8.06,1111122 
DISL,ioos:station:DISL:BSCA:1,2011-05-01T02:00:00Z,30.3288,-87.8293,1.637,8.16,1111122 
DISL,ioos:station:DISL:BSCA:1,2011-05-01T02:30:00Z,30.3288,-87.8293,1.629,7.98,1111122 
DISL,ioos:station:DISL:BSCA:1,2011-05-01T03:00:00Z,30.3288,-87.8293,1.641,7.99,1111122 
DISL,ioos:station:DISL:BSCA:1,2011-05-01T03:30:00Z,30.3288,-87.8293,1.642,7.99,1111122 
DISL,ioos:station:DISL:BSCA:1,2011-05-01T04:00:00Z,30.3288,-87.8293,1.662,7.95,1111122 
DISL,ioos:station:DISL:BSCA:1,2011-05-01T04:30:00Z,30.3288,-87.8293,1.687,7.84,1111122 
DISL,ioos:station:DISL:BSCA:1,2011-05-01T05:00:00Z,30.3288,-87.8293,1.715,7.94,1111122 
DISL,ioos:station:DISL:BSCA:1,2011-05-01T05:30:00Z,30.3288,-87.8293,1.751,7.76,1111122 
DISL,ioos:station:DISL:BSCA:1,2011-05-01T06:00:00Z,30.3288,-87.8293,1.803,7.67,1111122 
DISL,ioos:station:DISL:BSCA:1,2011-05-01T06:30:00Z,30.3288,-87.8293,1.849,7.64,1111122 
DISL,ioos:station:DISL:BSCA:1,2011-05-01T07:00:00Z,30.3288,-87.8293,1.887,7.53,1111122 
DISL,ioos:station:DISL:BSCA:1,2011-05-01T07:30:00Z,30.3288,-87.8293,1.921,7.49,1111122 
DISL,ioos:station:DISL:BSCA:1,2011-05-01T08:00:00Z,30.3288,-87.8293,1.949,7.02,1111122 
DISL,ioos:station:DISL:BSCA:1,2011-05-01T08:30:00Z,30.3288,-87.8293,1.964,7.39,1111122 
DISL,ioos:station:DISL:BSCA:1,2011-05-01T09:00:00Z,30.3288,-87.8293,1.957,7.4,1111122 
DISL,ioos:station:DISL:BSCA:1,2011-05-01T09:30:00Z,30.3288,-87.8293,1.954,7.31,1111122 
DISL,ioos:station:DISL:BSCA:1,2011-05-01T10:00:00Z,30.3288,-87.8293,1.944,7.22,1111122 
DISL,ioos:station:DISL:BSCA:1,2011-05-01T10:30:00Z,30.3288,-87.8293,1.957,7.12,1111122 
DISL,ioos:station:DISL:BSCA:1,2011-05-01T11:00:00Z,30.3288,-87.8293,1.974,6.88,1111122 
DISL,ioos:station:DISL:BSCA:1,2011-05-01T11:30:00Z,30.3288,-87.8293,2.016,6.99,1111122 
DISL,ioos:station:DISL:BSCA:1,2011-05-01T12:00:00Z,30.3288,-87.8293,2.034,7.02,1111122 
DISL,ioos:station:DISL:BSCA:1,2011-05-01T12:30:00Z,30.3288,-87.8293,2.053,6.96,1111122 
DISL,ioos:station:DISL:BSCA:1,2011-05-01T13:00:00Z,30.3288,-87.8293,2.082,6.75,1111122 
DISL,ioos:station:DISL:BSCA:1,2011-05-01T13:30:00Z,30.3288,-87.8293,2.088,6.93,1111122 
DISL,ioos:station:DISL:BSCA:1,2011-05-01T14:00:00Z,30.3288,-87.8293,2.102,6.87,1111122 
DISL,ioos:station:DISL:BSCA:1,2011-05-01T14:30:00Z,30.3288,-87.8293,2.112,6.82,1111122 
DISL,ioos:station:DISL:BSCA:1,2011-05-01T15:00:00Z,30.3288,-87.8293,2.12,6.97,1111122 
DISL,ioos:station:DISL:BSCA:1,2011-05-01T15:30:00Z,30.3288,-87.8293,2.104,6.97,1111122 
DISL,ioos:station:DISL:BSCA:1,2011-05-01T16:00:00Z,30.3288,-87.8293,2.088,6.89,1111122 
DISL,ioos:station:DISL:BSCA:1,2011-05-01T16:30:00Z,30.3288,-87.8293,2.065,6.53,1111122 
DISL,ioos:station:DISL:BSCA:1,2011-05-01T17:00:00Z,30.3288,-87.8293,2.032,6.17,1111122 
DISL,ioos:station:DISL:BSCA:1,2011-05-01T17:30:00Z,30.3288,-87.8293,2.008,5.57,1111122 
DISL,ioos:station:DISL:BSCA:1,2011-05-01T18:00:00Z,30.3288,-87.8293,1.972,5.82,1111122 
DISL,ioos:station:DISL:BSCA:1,2011-05-01T18:30:00Z,30.3288,-87.8293,1.937,6.4,1111122 
DISL,ioos:station:DISL:BSCA:1,2011-05-01T19:00:00Z,30.3288,-87.8293,1.891,7.02,1111122 
DISL,ioos:station:DISL:BSCA:1,2011-05-01T19:30:00Z,30.3288,-87.8293,1.859,7.49,1111122 
DISL,ioos:station:DISL:BSCA:1,2011-05-01T20:00:00Z,30.3288,-87.8293,1.82,7.7,1111122 
DISL,ioos:station:DISL:BSCA:1,2011-05-01T20:30:00Z,30.3288,-87.8293,1.79,7.87,1111122 
DISL,ioos:station:DISL:BSCA:1,2011-05-01T21:00:00Z,30.3288,-87.8293,1.753,7.78,1111122 
DISL,ioos:station:DISL:BSCA:1,2011-05-01T21:30:00Z,30.3288,-87.8293,1.713,7.73,1111122 
DISL,ioos:station:DISL:BSCA:1,2011-05-01T22:00:00Z,30.3288,-87.8293,1.694,7.68,1111122 
DISL,ioos:station:DISL:BSCA:1,2011-05-01T22:30:00Z,30.3288,-87.8293,1.661,7.84,1111122 
DISL,ioos:station:DISL:BSCA:1,2011-05-01T23:00:00Z,30.3288,-87.8293,1.635,7.87,1111122 
DISL,ioos:station:DISL:BSCA:1,2011-05-01T23:30:00Z,30.3288,-87.8293,1.628,7.56,1111122 
DISL,ioos:station:DISL:BSCA:1,2011-05-02T00:00:00Z,30.3288,-87.8293,1.625,7.29,1111122 
DISL,ioos:station:DISL:BSCA:1,2011-05-02T00:30:00Z,30.3288,-87.8293,1.653,7.12,1111122 
DISL,ioos:station:DISL:BSCA:1,2011-05-02T01:00:00Z,30.3288,-87.8293,1.675,6.95,1111122 
DISL,ioos:station:DISL:BSCA:1,2011-05-02T01:30:00Z,30.3288,-87.8293,1.714,7.14,1111122 
DISL,ioos:station:DISL:BSCA:1,2011-05-02T02:00:00Z,30.3288,-87.8293,1.737,7.05,1111122 
DISL,ioos:station:DISL:BSCA:1,2011-05-02T02:30:00Z,30.3288,-87.8293,1.758,6.99,1111122 
DISL,ioos:station:DISL:BSCA:1,2011-05-02T03:00:00Z,30.3288,-87.8293,1.777,7.18,1111122 
DISL,ioos:station:DISL:BSCA:1,2011-05-02T03:30:00Z,30.3288,-87.8293,1.78,7.29,1111122 
DISL,ioos:station:DISL:BSCA:1,2011-05-02T04:00:00Z,30.3288,-87.8293,1.787,7.39,1111122 
DISL,ioos:station:DISL:BSCA:1,2011-05-02T04:30:00Z,30.3288,-87.8293,1.784,7.36,1111122 
DISL,ioos:station:DISL:BSCA:1,2011-05-02T05:00:00Z,30.3288,-87.8293,1.808,7.19,1111122 
DISL,ioos:station:DISL:BSCA:1,2011-05-02T05:30:00Z,30.3288,-87.8293,1.849,7.14,1111122 
DISL,ioos:station:DISL:BSCA:1,2011-05-02T06:00:00Z,30.3288,-87.8293,1.878,7.2,1111122 
DISL,ioos:station:DISL:BSCA:1,2011-05-02T06:30:00Z,30.3288,-87.8293,1.929,6.89,1111122 
DISL,ioos:station:DISL:BSCA:1,2011-05-02T07:00:00Z,30.3288,-87.8293,1.972,6.71,1111122 
DISL,ioos:station:DISL:BSCA:1,2011-05-02T07:30:00Z,30.3288,-87.8293,2.022,7.07,1111122 
DISL,ioos:station:DISL:BSCA:1,2011-05-02T08:00:00Z,30.3288,-87.8293,2.06,6.86,1111122 
DISL,ioos:station:DISL:BSCA:1,2011-05-02T08:30:00Z,30.3288,-87.8293,2.077,6.98,1111122 
DISL,ioos:station:DISL:BSCA:1,2011-05-02T09:00:00Z,30.3288,-87.8293,2.106,6.77,1111122 
DISL,ioos:station:DISL:BSCA:1,2011-05-02T09:30:00Z,30.3288,-87.8293,2.109,6.57,1111122 
DISL,ioos:station:DISL:BSCA:1,2011-05-02T10:00:00Z,30.3288,-87.8293,2.129,6.53,1111122 
DISL,ioos:station:DISL:BSCA:1,2011-05-02T10:30:00Z,30.3288,-87.8293,2.134,6.8,1111122 
DISL,ioos:station:DISL:BSCA:1,2011-05-02T11:00:00Z,30.3288,-87.8293,2.14,6.71,1111122 
DISL,ioos:station:DISL:BSCA:1,2011-05-02T11:30:00Z,30.3288,-87.8293,2.139,6.58,1111122 
DISL,ioos:station:DISL:BSCA:1,2011-05-02T12:00:00Z,30.3288,-87.8293,2.138,6.44,1111122 
DISL,ioos:station:DISL:BSCA:1,2011-05-02T12:30:00Z,30.3288,-87.8293,2.136,6.5,1111122 
DISL,ioos:station:DISL:BSCA:1,2011-05-02T13:00:00Z,30.3288,-87.8293,2.143,6.05,1111122 
DISL,ioos:station:DISL:BSCA:1,2011-05-02T13:30:00Z,30.3288,-87.8293,2.161,5.78,1111122 
DISL,ioos:station:DISL:BSCA:1,2011-05-02T14:00:00Z,30.3288,-87.8293,2.175,5.53,1111122 
DISL,ioos:station:DISL:BSCA:1,2011-05-02T14:30:00Z,30.3288,-87.8293,2.173,6.53,1111122 
DISL,ioos:station:DISL:BSCA:1,2011-05-02T15:00:00Z,30.3288,-87.8293,2.167,6.62,1111122 
DISL,ioos:station:DISL:BSCA:1,2011-05-02T15:30:00Z,30.3288,-87.8293,2.138,6.68,1111122 
DISL,ioos:station:DISL:BSCA:1,2011-05-02T16:00:00Z,30.3288,-87.8293,2.114,6.79,1111122 
DISL,ioos:station:DISL:BSCA:1,2011-05-02T16:30:00Z,30.3288,-87.8293,2.081,7.38,1111122 
DISL,ioos:station:DISL:BSCA:1,2011-05-02T17:00:00Z,30.3288,-87.8293,2.058,7.62,1111122 
DISL,ioos:station:DISL:BSCA:1,2011-05-02T17:30:00Z,30.3288,-87.8293,2.036,7.79,1111122 
DISL,ioos:station:DISL:BSCA:1,2011-05-02T18:00:00Z,30.3288,-87.8293,2.015,7.59,1111122 
DISL,ioos:station:DISL:BSCA:1,2011-05-02T18:30:00Z,30.3288,-87.8293,1.994,7.52,1111122 
DISL,ioos:station:DISL:BSCA:1,2011-05-02T19:00:00Z,30.3288,-87.8293,1.975,7.77,1111122 
DISL,ioos:station:DISL:BSCA:1,2011-05-02T19:30:00Z,30.3288,-87.8293,1.942,7.88,1111122 
DISL,ioos:station:DISL:BSCA:1,2011-05-02T20:00:00Z,30.3288,-87.8293,1.902,7.83,1111122 
DISL,ioos:station:DISL:BSCA:1,2011-05-02T20:30:00Z,30.3288,-87.8293,1.865,7.84,1111122 
DISL,ioos:station:DISL:BSCA:1,2011-05-02T21:00:00Z,30.3288,-87.8293,1.832,7.95,1111122 
DISL,ioos:station:DISL:BSCA:1,2011-05-02T21:30:00Z,30.3288,-87.8293,1.793,7.93,1111122 
DISL,ioos:station:DISL:BSCA:1,2011-05-02T22:00:00Z,30.3288,-87.8293,1.771,7.71,1111122 
DISL,ioos:station:DISL:BSCA:1,2011-05-02T22:30:00Z,30.3288,-87.8293,1.739,7.99,1111122 
DISL,ioos:station:DISL:BSCA:1,2011-05-02T23:00:00Z,30.3288,-87.8293,1.712,7.65,1111122 
DISL,ioos:station:DISL:BSCA:1,2011-05-02T23:30:00Z,30.3288,-87.8293,1.683,7.8,1111122 
DISL,ioos:station:DISL:BSCA:1,2011-05-03T00:00:00Z,30.3288,-87.8293,1.653,7.8,1111122 
DISL,ioos:station:DISL:BSCA:1,2011-05-03T00:30:00Z,30.3288,-87.8293,1.642,7.24,1111122 
DISL,ioos:station:DISL:BSCA:1,2011-05-03T01:00:00Z,30.3288,-87.8293,1.644,7.01,1111122 
DISL,ioos:station:DISL:BSCA:1,2011-05-03T01:30:00Z,30.3288,-87.8293,1.639,7.51,1111122 
DISL,ioos:station:DISL:BSCA:1,2011-05-03T02:00:00Z,30.3288,-87.8293,1.642,7.5,1111122 
DISL,ioos:station:DISL:BSCA:1,2011-05-03T02:30:00Z,30.3288,-87.8293,1.637,7.64,1111122 
DISL,ioos:station:DISL:BSCA:1,2011-05-03T03:00:00Z,30.3288,-87.8293,1.665,7.45,1111122 
DISL,ioos:station:DISL:BSCA:1,2011-05-03T03:30:00Z,30.3288,-87.8293,1.673,7.29,1111122 
DISL,ioos:station:DISL:BSCA:1,2011-05-03T04:00:00Z,30.3288,-87.8293,1.687,7.33,1111122 
DISL,ioos:station:DISL:BSCA:1,2011-05-03T04:30:00Z,30.3288,-87.8293,1.702,7.24,1111122 
DISL,ioos:station:DISL:BSCA:1,2011-05-03T05:00:00Z,30.3288,-87.8293,1.718,7.4,1111122 
DISL,ioos:station:DISL:BSCA:1,2011-05-03T05:30:00Z,30.3288,-87.8293,1.737,7.23,1111122 
DISL,ioos:station:DISL:BSCA:1,2011-05-03T06:00:00Z,30.3288,-87.8293,1.761,7.15,1111122 
DISL,ioos:station:DISL:BSCA:1,2011-05-03T06:30:00Z,30.3288,-87.8293,1.798,6.99,1111122 
DISL,ioos:station:DISL:BSCA:1,2011-05-03T07:00:00Z,30.3288,-87.8293,1.833,6.94,1111122 
DISL,ioos:station:DISL:BSCA:1,2011-05-03T07:30:00Z,30.3288,-87.8293,1.864,6.85,1111122 
DISL,ioos:station:DISL:BSCA:1,2011-05-03T08:00:00Z,30.3288,-87.8293,1.904,7.04,1111122 
DISL,ioos:station:DISL:BSCA:1,2011-05-03T08:30:00Z,30.3288,-87.8293,1.926,7.17,1111122 
DISL,ioos:station:DISL:BSCA:1,2011-05-03T09:00:00Z,30.3288,-87.8293,1.95,7.11,1111122 
DISL,ioos:station:DISL:BSCA:1,2011-05-03T09:30:00Z,30.3288,-87.8293,1.967,7.3,1111122 
DISL,ioos:station:DISL:BSCA:1,2011-05-03T10:00:00Z,30.3288,-87.8293,1.991,7.0,1111122 
DISL,ioos:station:DISL:BSCA:1,2011-05-03T10:30:00Z,30.3288,-87.8293,1.997,7.03,1111122 
DISL,ioos:station:DISL:BSCA:1,2011-05-03T11:00:00Z,30.3288,-87.8293,2.047,6.98,1111122 
DISL,ioos:station:DISL:BSCA:1,2011-05-03T11:30:00Z,30.3288,-87.8293,2.072,6.98,1111122 
DISL,ioos:station:DISL:BSCA:1,2011-05-03T12:00:00Z,30.3288,-87.8293,2.103,7.01,1111122 
DISL,ioos:station:DISL:BSCA:1,2011-05-03T12:30:00Z,30.3288,-87.8293,2.128,6.91,1111122 
DISL,ioos:station:DISL:BSCA:1,2011-05-03T13:00:00Z,30.3288,-87.8293,2.157,7.07,1111122 
DISL,ioos:station:DISL:BSCA:1,2011-05-03T13:30:00Z,30.3288,-87.8293,2.187,7.21,1111122 
DISL,ioos:station:DISL:BSCA:1,2011-05-03T14:00:00Z,30.3288,-87.8293,2.203,7.23,1111122 
DISL,ioos:station:DISL:BSCA:1,2011-05-03T14:30:00Z,30.3288,-87.8293,2.217,7.35,1111122 
DISL,ioos:station:DISL:BSCA:1,2011-05-03T15:00:00Z,30.3288,-87.8293,2.24,7.15,1111122 
DISL,ioos:station:DISL:BSCA:1,2011-05-03T15:30:00Z,30.3288,-87.8293,2.253,7.19,1111122 
DISL,ioos:station:DISL:BSCA:1,2011-05-03T16:00:00Z,30.3288,-87.8293,2.262,7.51,1111122 
DISL,ioos:station:DISL:BSCA:1,2011-05-03T16:30:00Z,30.3288,-87.8293,2.246,7.5,1111122 
DISL,ioos:station:DISL:BSCA:1,2011-05-03T17:00:00Z,30.3288,-87.8293,2.233,7.62,1111122 
DISL,ioos:station:DISL:BSCA:1,2011-05-03T17:30:00Z,30.3288,-87.8293,2.206,7.74,1111122 
DISL,ioos:station:DISL:BSCA:1,2011-05-03T18:00:00Z,30.3288,-87.8293,2.18,7.75,1111122 
DISL,ioos:station:DISL:BSCA:1,2011-05-03T18:30:00Z,30.3288,-87.8293,2.166,7.63,1111122 
DISL,ioos:station:DISL:BSCA:1,2011-05-03T19:00:00Z,30.3288,-87.8293,2.143,7.69,1111122 
DISL,ioos:station:DISL:BSCA:1,2011-05-03T19:30:00Z,30.3288,-87.8293,2.198,7.59,1111122 
DISL,ioos:station:DISL:BSCA:1,2011-05-03T20:00:00Z,30.3288,-87.8293,2.179,7.58,1111122 
DISL,ioos:station:DISL:BSCA:1,2011-05-03T20:30:00Z,30.3288,-87.8293,2.233,7.72,1111122 
DISL,ioos:station:DISL:BSCA:1,2011-05-03T21:00:00Z,30.3288,-87.8293,2.103,7.5,1111122 
DISL,ioos:station:DISL:BSCA:1,2011-05-03T21:30:00Z,30.3288,-87.8293,1.979,7.78,1111122 
DISL,ioos:station:DISL:BSCA:1,2011-05-03T22:00:00Z,30.3288,-87.8293,1.904,7.69,1111122 
DISL,ioos:station:DISL:BSCA:1,2011-05-03T22:30:00Z,30.3288,-87.8293,1.818,7.79,1111122 
DISL,ioos:station:DISL:BSCA:1,2011-05-03T23:00:00Z,30.3288,-87.8293,1.85,7.92,1111122 
DISL,ioos:station:DISL:BSCA:1,2011-05-03T23:30:00Z,30.3288,-87.8293,1.831,7.82,1111122 
DISL,ioos:station:DISL:BSCA:1,2011-05-04T00:00:00Z,30.3288,-87.8293,1.798,8.03,1111122 
DISL,ioos:station:DISL:BSCA:1,2011-05-04T00:30:00Z,30.3288,-87.8293,1.798,8.11,1111122 
DISL,ioos:station:DISL:BSCA:1,2011-05-04T01:00:00Z,30.3288,-87.8293,1.728,8.04,1111122 
DISL,ioos:station:DISL:BSCA:1,2011-05-04T01:30:00Z,30.3288,-87.8293,1.717,7.92,1111122 
DISL,ioos:station:DISL:BSCA:1,2011-05-04T02:00:00Z,30.3288,-87.8293,1.682,8.0,1111122 
DISL,ioos:station:DISL:BSCA:1,2011-05-04T02:30:00Z,30.3288,-87.8293,1.622,7.81,1111122 
DISL,ioos:station:DISL:BSCA:1,2011-05-04T03:00:00Z,30.3288,-87.8293,1.592,7.96,1111122 
DISL,ioos:station:DISL:BSCA:1,2011-05-04T03:30:00Z,30.3288,-87.8293,1.566,7.67,1111122 
DISL,ioos:station:DISL:BSCA:1,2011-05-04T04:00:00Z,30.3288,-87.8293,1.551,7.55,1111122 
DISL,ioos:station:DISL:BSCA:1,2011-05-04T04:30:00Z,30.3288,-87.8293,1.56,7.64,1111122 
DISL,ioos:station:DISL:BSCA:1,2011-05-04T05:00:00Z,30.3288,-87.8293,1.554,7.25,1111122 
DISL,ioos:station:DISL:BSCA:1,2011-05-04T05:30:00Z,30.3288,-87.8293,1.54,7.42,1111122 
DISL,ioos:station:DISL:BSCA:1,2011-05-04T06:00:00Z,30.3288,-87.8293,1.552,7.48,1111122 
DISL,ioos:station:DISL:BSCA:1,2011-05-04T06:30:00Z,30.3288,-87.8293,1.543,7.49,1111122 
DISL,ioos:station:DISL:BSCA:1,2011-05-04T07:00:00Z,30.3288,-87.8293,1.547,7.35,1111122 
DISL,ioos:station:DISL:BSCA:1,2011-05-04T07:30:00Z,30.3288,-87.8293,1.544,7.49,1111122 
DISL,ioos:station:DISL:BSCA:1,2011-05-04T08:00:00Z,30.3288,-87.8293,1.549,7.55,1111122 
DISL,ioos:station:DISL:BSCA:1,2011-05-04T08:30:00Z,30.3288,-87.8293,1.549,7.47,1111122 
DISL,ioos:station:DISL:BSCA:1,2011-05-04T09:00:00Z,30.3288,-87.8293,1.578,7.36,1111122 
DISL,ioos:station:DISL:BSCA:1,2011-05-04T09:30:00Z,30.3288,-87.8293,1.604,7.45,1111122 
DISL,ioos:station:DISL:BSCA:1,2011-05-04T10:00:00Z,30.3288,-87.8293,1.653,7.53,1111122 
DISL,ioos:station:DISL:BSCA:1,2011-05-04T10:30:00Z,30.3288,-87.8293,1.693,7.5,1111122 
DISL,ioos:station:DISL:BSCA:1,2011-05-04T11:00:00Z,30.3288,-87.8293,1.736,7.82,1111122 
DISL,ioos:station:DISL:BSCA:1,2011-05-04T11:30:00Z,30.3288,-87.8293,1.762,7.64,1111122 
DISL,ioos:station:DISL:BSCA:1,2011-05-04T12:00:00Z,30.3288,-87.8293,1.794,7.49,1111122 
DISL,ioos:station:DISL:BSCA:1,2011-05-04T12:30:00Z,30.3288,-87.8293,1.831,7.34,1111122 
DISL,ioos:station:DISL:BSCA:1,2011-05-04T13:00:00Z,30.3288,-87.8293,1.855,7.59,1111122 
DISL,ioos:station:DISL:BSCA:1,2011-05-04T13:30:00Z,30.3288,-87.8293,1.889,7.6,1111122 
DISL,ioos:station:DISL:BSCA:1,2011-05-04T14:00:00Z,30.3288,-87.8293,1.931,7.23,1111122 
DISL,ioos:station:DISL:BSCA:1,2011-05-04T14:30:00Z,30.3288,-87.8293,1.964,7.42,1111122 
DISL,ioos:station:DISL:BSCA:1,2011-05-04T15:00:00Z,30.3288,-87.8293,1.995,7.78,1111122 
DISL,ioos:station:DISL:BSCA:1,2011-05-04T15:30:00Z,30.3288,-87.8293,2.012,7.72,1111122 
DISL,ioos:station:DISL:BSCA:1,2011-05-04T16:00:00Z,30.3288,-87.8293,2.031,7.86,1111122 
DISL,ioos:station:DISL:BSCA:1,2011-05-04T16:30:00Z,30.3288,-87.8293,2.056,7.76,1111122 
DISL,ioos:station:DISL:BSCA:1,2011-05-04T17:00:00Z,30.3288,-87.8293,2.071,7.49,1111122 
DISL,ioos:station:DISL:BSCA:1,2011-05-04T17:30:00Z,30.3288,-87.8293,2.083,7.4,1111122 
DISL,ioos:station:DISL:BSCA:1,2011-05-04T18:00:00Z,30.3288,-87.8293,2.091,7.83,1111122 
DISL,ioos:station:DISL:BSCA:1,2011-05-04T18:30:00Z,30.3288,-87.8293,2.071,8.13,1111122 
DISL,ioos:station:DISL:BSCA:1,2011-05-04T19:00:00Z,30.3288,-87.8293,2.052,7.57,1111122 
DISL,ioos:station:DISL:BSCA:1,2011-05-04T19:30:00Z,30.3288,-87.8293,2.014,6.97,1111122 
DISL,ioos:station:DISL:BSCA:1,2011-05-04T20:00:00Z,30.3288,-87.8293,2.002,7.81,1111122 
DISL,ioos:station:DISL:BSCA:1,2011-05-04T20:30:00Z,30.3288,-87.8293,1.978,7.92,1111122 
DISL,ioos:station:DISL:BSCA:1,2011-05-04T21:00:00Z,30.3288,-87.8293,1.924,7.55,1111122 
DISL,ioos:station:DISL:BSCA:1,2011-05-04T21:30:00Z,30.3288,-87.8293,1.902,7.78,1111122 
DISL,ioos:station:DISL:BSCA:1,2011-05-04T22:00:00Z,30.3288,-87.8293,1.854,8.07,1111122 
DISL,ioos:station:DISL:BSCA:1,2011-05-04T22:30:00Z,30.3288,-87.8293,1.801,8.41,1111122 
DISL,ioos:station:DISL:BSCA:1,2011-05-04T23:00:00Z,30.3288,-87.8293,1.753,7.76,1111122 
DISL,ioos:station:DISL:BSCA:1,2011-05-04T23:30:00Z,30.3288,-87.8293,1.702,8.24,1111122 
DISL,ioos:station:DISL:BSCA:1,2011-05-05T00:00:00Z,30.3288,-87.8293,1.675,8.31,1111122 
DISL,ioos:station:DISL:BSCA:1,2011-05-05T00:30:00Z,30.3288,-87.8293,1.646,7.58,1111122 
DISL,ioos:station:DISL:BSCA:1,2011-05-05T01:00:00Z,30.3288,-87.8293,1.603,7.15,1111122 
DISL,ioos:station:DISL:BSCA:1,2011-05-05T01:30:00Z,30.3288,-87.8293,1.584,8.11,1111122 
DISL,ioos:station:DISL:BSCA:1,2011-05-05T02:00:00Z,30.3288,-87.8293,1.549,7.08,1111122 
DISL,ioos:station:DISL:BSCA:1,2011-05-05T02:30:00Z,30.3288,-87.8293,1.526,7.35,1111122 
DISL,ioos:station:DISL:BSCA:1,2011-05-05T03:00:00Z,30.3288,-87.8293,1.504,6.8,1111122 
DISL,ioos:station:DISL:BSCA:1,2011-05-05T03:30:00Z,30.3288,-87.8293,1.483,6.35,1111122 
DISL,ioos:station:DISL:BSCA:1,2011-05-05T04:00:00Z,30.3288,-87.8293,1.465,6.35,1111122 
DISL,ioos:station:DISL:BSCA:1,2011-05-05T04:30:00Z,30.3288,-87.8293,1.467,6.64,1111122 
DISL,ioos:station:DISL:BSCA:1,2011-05-05T05:00:00Z,30.3288,-87.8293,1.478,6.85,1111122 
DISL,ioos:station:DISL:BSCA:1,2011-05-05T05:30:00Z,30.3288,-87.8293,1.473,7.87,1111122 
DISL,ioos:station:DISL:BSCA:1,2011-05-05T06:00:00Z,30.3288,-87.8293,1.497,7.99,1111122 
DISL,ioos:station:DISL:BSCA:1,2011-05-05T06:30:00Z,30.3288,-87.8293,1.508,8.53,1111122 
DISL,ioos:station:DISL:BSCA:1,2011-05-05T07:00:00Z,30.3288,-87.8293,1.53,8.21,1111122 
DISL,ioos:station:DISL:BSCA:1,2011-05-05T07:30:00Z,30.3288,-87.8293,1.554,8.29,1111122 
DISL,ioos:station:DISL:BSCA:1,2011-05-05T08:00:00Z,30.3288,-87.8293,1.569,8.05,1111122 
DISL,ioos:station:DISL:BSCA:1,2011-05-05T08:30:00Z,30.3288,-87.8293,1.583,7.53,1111122 
DISL,ioos:station:DISL:BSCA:1,2011-05-05T09:00:00Z,30.3288,-87.8293,1.593,7.01,1111122 
DISL,ioos:station:DISL:BSCA:1,2011-05-05T09:30:00Z,30.3288,-87.8293,1.608,7.45,1111122 
DISL,ioos:station:DISL:BSCA:1,2011-05-05T10:00:00Z,30.3288,-87.8293,1.617,6.78,1111122 
DISL,ioos:station:DISL:BSCA:1,2011-05-05T10:30:00Z,30.3288,-87.8293,1.637,6.72,1111122 
DISL,ioos:station:DISL:BSCA:1,2011-05-05T11:00:00Z,30.3288,-87.8293,1.662,6.96,1111122 
DISL,ioos:station:DISL:BSCA:1,2011-05-05T11:30:00Z,30.3288,-87.8293,1.68,6.98,1111122 
DISL,ioos:station:DISL:BSCA:1,2011-05-05T12:00:00Z,30.3288,-87.8293,1.698,6.45,1111122 
DISL,ioos:station:DISL:BSCA:1,2011-05-05T12:30:00Z,30.3288,-87.8293,1.732,6.79,1111122 
DISL,ioos:station:DISL:BSCA:1,2011-05-05T13:00:00Z,30.3288,-87.8293,1.766,7.29,1111122 
DISL,ioos:station:DISL:BSCA:1,2011-05-05T13:30:00Z,30.3288,-87.8293,1.812,7.62,1111122 
DISL,ioos:station:DISL:BSCA:1,2011-05-05T14:00:00Z,30.3288,-87.8293,1.854,7.8,1111122 
DISL,ioos:station:DISL:BSCA:1,2011-05-05T14:30:00Z,30.3288,-87.8293,1.889,7.88,1111122 
DISL,ioos:station:DISL:BSCA:1,2011-05-05T15:00:00Z,30.3288,-87.8293,1.936,7.54,1111122 
DISL,ioos:station:DISL:BSCA:1,2011-05-05T15:30:00Z,30.3288,-87.8293,1.969,6.35,1111122 
DISL,ioos:station:DISL:BSCA:1,2011-05-05T16:00:00Z,30.3288,-87.8293,2.01,6.71,1111122 
DISL,ioos:station:DISL:BSCA:1,2011-05-05T16:30:00Z,30.3288,-87.8293,2.051,7.37,1111122 
DISL,ioos:station:DISL:BSCA:1,2011-05-05T17:00:00Z,30.3288,-87.8293,2.078,5.96,1111122 
DISL,ioos:station:DISL:BSCA:1,2011-05-05T17:30:00Z,30.3288,-87.8293,2.112,6.75,1111122 
DISL,ioos:station:DISL:BSCA:1,2011-05-05T18:00:00Z,30.3288,-87.8293,2.117,7.11,1111122 
DISL,ioos:station:DISL:BSCA:1,2011-05-05T18:30:00Z,30.3288,-87.8293,2.135,7.04,1111122 
DISL,ioos:station:DISL:BSCA:1,2011-05-05T19:00:00Z,30.3288,-87.8293,2.134,6.97,1111122 
DISL,ioos:station:DISL:BSCA:1,2011-05-05T19:30:00Z,30.3288,-87.8293,2.114,6.76,1111122 
DISL,ioos:station:DISL:BSCA:1,2011-05-05T20:00:00Z,30.3288,-87.8293,2.091,6.78,1111122 
DISL,ioos:station:DISL:BSCA:1,2011-05-05T20:30:00Z,30.3288,-87.8293,2.044,6.96,1111122 
DISL,ioos:station:DISL:BSCA:1,2011-05-05T21:00:00Z,30.3288,-87.8293,2.001,6.85,1111122 
DISL,ioos:station:DISL:BSCA:1,2011-05-05T21:30:00Z,30.3288,-87.8293,1.961,6.76,1111122 
DISL,ioos:station:DISL:BSCA:1,2011-05-05T22:00:00Z,30.3288,-87.8293,1.909,7.25,1111122 
DISL,ioos:station:DISL:BSCA:1,2011-05-05T22:30:00Z,30.3288,-87.8293,1.872,7.58,1111122 
DISL,ioos:station:DISL:BSCA:1,2011-05-05T23:00:00Z,30.3288,-87.8293,1.826,6.93,1111122 
DISL,ioos:station:DISL:BSCA:1,2011-05-05T23:30:00Z,30.3288,-87.8293,1.778,7.67,1111122 
DISL,ioos:station:DISL:BSCA:1,2011-05-06T00:00:00Z,30.3288,-87.8293,1.738,7.65,1111122 
DISL,ioos:station:DISL:BSCA:1,2011-05-06T00:30:00Z,30.3288,-87.8293,1.702,8.06,1111122 
DISL,ioos:station:DISL:BSCA:1,2011-05-06T01:00:00Z,30.3288,-87.8293,1.673,7.97,1111122 
DISL,ioos:station:DISL:BSCA:1,2011-05-06T01:30:00Z,30.3288,-87.8293,1.652,7.68,1111122 
DISL,ioos:station:DISL:BSCA:1,2011-05-06T02:00:00Z,30.3288,-87.8293,1.638,8.59,1111122 
DISL,ioos:station:DISL:BSCA:1,2011-05-06T02:30:00Z,30.3288,-87.8293,1.631,8.38,1111122 
DISL,ioos:station:DISL:BSCA:1,2011-05-06T03:00:00Z,30.3288,-87.8293,1.618,8.55,1111122 
DISL,ioos:station:DISL:BSCA:1,2011-05-06T03:30:00Z,30.3288,-87.8293,1.604,8.76,1111122 
DISL,ioos:station:DISL:BSCA:1,2011-05-06T04:00:00Z,30.3288,-87.8293,1.598,8.71,1111122 
DISL,ioos:station:DISL:BSCA:1,2011-05-06T04:30:00Z,30.3288,-87.8293,1.585,8.8,1111122 
DISL,ioos:station:DISL:BSCA:1,2011-05-06T05:00:00Z,30.3288,-87.8293,1.579,8.72,1111122 
DISL,ioos:station:DISL:BSCA:1,2011-05-06T05:30:00Z,30.3288,-87.8293,1.571,8.67,1111122 
DISL,ioos:station:DISL:BSCA:1,2011-05-06T06:00:00Z,30.3288,-87.8293,1.568,8.48,1111122 
DISL,ioos:station:DISL:BSCA:1,2011-05-06T06:30:00Z,30.3288,-87.8293,1.574,8.33,1111122 
DISL,ioos:station:DISL:BSCA:1,2011-05-06T07:00:00Z,30.3288,-87.8293,1.598,7.86,1111122 
DISL,ioos:station:DISL:BSCA:1,2011-05-06T07:30:00Z,30.3288,-87.8293,1.616,7.94,1111122 
DISL,ioos:station:DISL:BSCA:1,2011-05-06T08:00:00Z,30.3288,-87.8293,1.643,7.71,1111122 
DISL,ioos:station:DISL:BSCA:1,2011-05-06T08:30:00Z,30.3288,-87.8293,1.668,7.44,1111122 
DISL,ioos:station:DISL:BSCA:1,2011-05-06T09:00:00Z,30.3288,-87.8293,1.696,6.88,1111122 
DISL,ioos:station:DISL:BSCA:1,2011-05-06T09:30:00Z,30.3288,-87.8293,1.706,6.82,1111122 
DISL,ioos:station:DISL:BSCA:1,2011-05-06T10:00:00Z,30.3288,-87.8293,1.728,6.59,1111122 
DISL,ioos:station:DISL:BSCA:1,2011-05-06T10:30:00Z,30.3288,-87.8293,1.744,5.96,1111122 
DISL,ioos:station:DISL:BSCA:1,2011-05-06T11:00:00Z,30.3288,-87.8293,1.772,6.42,1111122 
DISL,ioos:station:DISL:BSCA:1,2011-05-06T11:30:00Z,30.3288,-87.8293,1.811,5.7,1111122 
DISL,ioos:station:DISL:BSCA:1,2011-05-06T12:00:00Z,30.3288,-87.8293,1.849,5.52,1111122 
DISL,ioos:station:DISL:BSCA:1,2011-05-06T12:30:00Z,30.3288,-87.8293,1.891,6.5,1111122 
DISL,ioos:station:DISL:BSCA:1,2011-05-06T13:30:00Z,30.3288,-87.8293,1.955,6.58,1111122 
DISL,ioos:station:DISL:BSCA:1,2011-05-06T14:00:00Z,30.3288,-87.8293,1.984,6.34,1111122 
DISL,ioos:station:DISL:BSCA:1,2011-05-06T14:30:00Z,30.3288,-87.8293,2.01,6.38,1111122 
DISL,ioos:station:DISL:BSCA:1,2011-05-06T15:00:00Z,30.3288,-87.8293,2.045,5.39,1111122 
DISL,ioos:station:DISL:BSCA:1,2011-05-06T15:30:00Z,30.3288,-87.8293,2.061,6.51,1111122 
DISL,ioos:station:DISL:BSCA:1,2011-05-06T16:00:00Z,30.3288,-87.8293,2.088,6.51,1111122 